Winter Haven, FL

8:37 AM EDT on March 23, 2017 (GMT -0400)
Winter Haven's-Gilbert

Weather History for KGIF - October, 2013

Change the Weather History Date:

Tuesday, October 22, 2013

  Actual Average Record
Temperature  
Mean Temperature 81 °F -  
Max Temperature 89 °F 83 °F 91 °F (2006)
Min Temperature 73 °F 64 °F 45 °F (1961)
Cooling Degree Days 16    
Growing Degree Days 31 (Base 50)    
Moisture  
Dew Point 72 °F    
Average Humidity 85    
Maximum Humidity 100    
Minimum Humidity 52    
Precipitation  
Precipitation 0.07 in - - ()
Sea Level Pressure  
Sea Level Pressure 29.91 in    
Wind  
Wind Speed 5 mph (SW)    
Max Wind Speed 14 mph    
Max Gust Speed -    
Visibility 7 miles    
Events Fog    
Averages and records for this station are not official NWS values.
T = Trace of Precipitation, MM = Missing Value Source: NWS Daily Summary

Daily Weather History Graph

Daily Weather History Graph

Search for Another Location

Airport or City:

Trip Planner

Search our weather history database for the weather conditions in past years. The results will help you decide how hot, cold, wet, or windy it might be!

Date:

Astronomy

Oct. 22, 2013 Rise Set
Actual Time 7:31 AM EDT 6:50 PM EDT
Civil Twilight 7:07 AM EDT 7:14 PM EDT
Nautical Twilight 6:40 AM EDT 7:41 PM EDT
Astronomical Twilight 6:13 AM EDT 8:09 PM EDT
Moon 9:42 PM EDT (10/22) 10:46 AM EDT (10/22)
Length of Visible Light 12h 06m
Length of Day
11h 18m
Waning Gibbous, 87% of the Moon is Illuminated
Oct 22
Waning Gibbous
Oct 26
Last Quarter
Nov 3
New
Nov 10
First Quarter
Nov 17
Full

Hourly Weather History & Observations

Time (EDT) Temp. Heat Index Dew Point Humidity Pressure Visibility Wind Dir Wind Speed Gust Speed Precip Events Conditions
12:53 AM 73.9 °F - 72.0 °F 93% 29.97 in 10.0 mi ENE 3.5 mph - N/A   Clear
1:53 AM 75.0 °F - 73.0 °F 94% 29.95 in 10.0 mi ESE 4.6 mph - N/A   Clear
2:53 AM 73.9 °F - 73.0 °F 97% 29.94 in 8.0 mi Calm Calm - N/A   Clear
3:53 AM 75.0 °F - 73.9 °F 96% 29.92 in 9.0 mi ESE 5.8 mph - N/A   Clear
4:53 AM 75.0 °F - 73.0 °F 94% 29.91 in 8.0 mi SSE 4.6 mph - N/A   Clear
5:53 AM 73.9 °F - 72.0 °F 93% 29.93 in 6.0 mi West 3.5 mph - N/A   Mostly Cloudy
6:03 AM 73.9 °F - 73.0 °F 97% 29.93 in 5.0 mi West 3.5 mph - N/A   Overcast
6:12 AM 73.0 °F - 72.0 °F 96% 29.93 in 4.0 mi SW 3.5 mph - N/A   Overcast
6:27 AM 73.0 °F - 72.0 °F 96% 29.94 in 1.8 mi WSW 3.5 mph - N/A   Overcast
6:34 AM 73.0 °F - 72.0 °F 96% 29.94 in 1.0 mi Calm Calm - N/A   Overcast
6:46 AM 73.0 °F - 72.0 °F 96% 29.95 in 0.5 mi Calm Calm - N/A Fog Fog
6:53 AM 73.0 °F - 72.0 °F 96% 29.94 in 0.2 mi Calm Calm - N/A Fog Fog
7:53 AM 73.0 °F - 73.0 °F 100% 29.95 in 0.2 mi SSW 3.5 mph - N/A Fog Fog
8:53 AM 73.9 °F - 73.0 °F 97% 29.95 in 0.2 mi South 5.8 mph - N/A Fog Fog
9:23 AM 73.9 °F - 73.0 °F 97% 29.96 in 1.2 mi SW 4.6 mph - N/A   Overcast
9:51 AM 73.4 °F - 73.4 °F 100% 29.96 in 2.0 mi Variable 3.5 mph - N/A   Overcast
9:53 AM 73.9 °F - 73.0 °F 97% 29.96 in 2.0 mi SW 4.6 mph - N/A   Overcast
9:58 AM 73.9 °F - 73.0 °F 97% 29.96 in 3.0 mi SW 3.5 mph - N/A   Mostly Cloudy
10:17 AM 79.0 °F - 73.0 °F 82% 29.95 in 5.0 mi South 5.8 mph - N/A   Haze
10:53 AM 80.1 °F 83.6 °F 71.1 °F 74% 29.94 in 9.0 mi Variable 5.8 mph - N/A   Clear
11:53 AM 84.0 °F 88.4 °F 70.0 °F 63% 29.93 in 10.0 mi SSW 9.2 mph - N/A   Clear
12:53 PM 86.0 °F 91.5 °F 71.1 °F 61% 29.91 in 10.0 mi WSW 11.5 mph - N/A   Clear
1:53 PM 87.1 °F 92.8 °F 71.1 °F 59% 29.89 in 10.0 mi WSW 13.8 mph - N/A   Mostly Cloudy
2:53 PM 89.1 °F 94.1 °F 70.0 °F 53% 29.86 in 10.0 mi SSW 12.7 mph - N/A   Partly Cloudy
3:53 PM 89.1 °F 93.7 °F 69.1 °F 52% 29.85 in 10.0 mi WSW 12.7 mph - N/A   Partly Cloudy
4:53 PM 86.0 °F 90.1 °F 69.1 °F 57% 29.84 in 10.0 mi WSW 12.7 mph - N/A   Partly Cloudy
5:53 PM 84.0 °F 89.6 °F 72.0 °F 67% 29.84 in 10.0 mi West 9.2 mph - N/A   Partly Cloudy
6:53 PM 82.0 °F 86.3 °F 71.1 °F 69% 29.85 in 10.0 mi West 8.1 mph - N/A   Partly Cloudy
7:53 PM 79.0 °F - 70.0 °F 74% 29.86 in 10.0 mi WNW 6.9 mph - N/A   Scattered Clouds
8:53 PM 77.0 °F - 70.0 °F 79% 29.88 in 10.0 mi WNW 8.1 mph - 0.00 in   Mostly Cloudy
9:53 PM 73.9 °F - 69.1 °F 85% 29.90 in 10.0 mi West 9.2 mph - 0.02 in   Overcast
10:53 PM 73.0 °F - 71.1 °F 93% 29.86 in 10.0 mi Calm Calm - 0.05 in   Scattered Clouds
11:19 PM 73.0 °F - 70.0 °F 90% 29.86 in 10.0 mi SSW 4.6 mph - N/A   Partly Cloudy
11:53 PM 73.0 °F - 70.0 °F 90% 29.85 in 10.0 mi South 5.8 mph - N/A   Clear